EW6500 Weather Reports


time (UTC)temp
C
wind
direction
speed
KPH
gust
KPH
rain 1hr
cm
rain 24hr
cm
rain mn
cm
humidity
%
barometer
mb
20260510071512 23 341 1.6 8.0 0.00 0.00 0.00 43 1022.8
20260510070009 22 5 1.6 14.5 0.00 0.00 0.00 44 1022.7
20260510064507 22 325 8.0 19.3 0.00 0.00 0.00 41 1022.8
20260510063006 22 335 4.8 16.1 0.00 0.00 0.00 44 1023.1
20260510061505 22 336 1.6 8.0 0.00 0.00 0.00 43 1023.2
20260510060002 22 339 1.6 14.5 0.00 0.00 0.00 45 1023.3
20260510054559 22 355 3.2 12.9 0.00 0.00 0.00 44 1023.5
20260510053057 22 346 6.4 16.1 0.00 0.00 0.00 45 1023.7
20260510051557 21 331 1.6 17.7 0.00 0.00 0.00 48 1023.8
20260510050055 21 325 4.8 12.9 0.00 0.00 0.00 46 1023.8
20260510044605 21 38 4.8 12.9 0.00 0.00 0.00 45 1024.0
20260510043044 21 345 3.2 14.5 0.00 0.00 0.00 46 1024.3
20260510041540 20 317 6.4 22.5 0.00 0.00 0.00 48 1024.6
20260510040036 20 336 4.8 16.1 0.00 0.00 0.00 48 1024.8
20260510034534 20 333 4.8 14.5 0.00 0.00 0.00 51 1025.1
20260510033031 19 341 6.4 20.9 0.00 0.00 0.00 50 1025.4
20260510031529 19 10 3.2 14.5 0.00 0.00 0.00 53 1025.5
20260510030035 18 338 6.4 16.1 0.00 0.00 0.00 53 1025.7
20260510024526 19 341 3.2 12.9 0.00 0.00 0.00 54 1025.8
20260510023022 18 337 1.6 8.0 0.00 0.00 0.00 59 1025.9
20260510021524 18 9 1.6 4.8 0.00 0.00 0.00 58 1026.2
20260510020018 17 17 1.6 4.8 0.00 0.00 0.00 59 1026.3
20260510014514 17 5 0.0 4.8 0.00 0.00 0.00 62 1026.3
20260510013013 16 360 1.6 4.8 0.00 0.00 0.00 64 1026.4
20260510011510 15 360 1.6 6.4 0.00 0.00 0.00 65 1026.6
20260510010002 13 61 0.0 1.6 0.00 0.00 0.00 71 1026.8
20260510004609 12 61 0.0 4.8 0.00 0.00 0.00 74 1026.9
20260510003059 12 62 0.0 1.6 0.00 0.00 0.00 74 1026.8
20260510001558 11 62 0.0 3.2 0.00 0.00 0.00 77 1026.8
20260510000050 10 71 1.6 8.0 0.00 0.00 0.00 76 1026.8
20260509234555 9 55 0.0 6.4 0.00 0.00 0.00 78 1026.6
20260509233044 9 54 0.0 3.2 0.00 0.00 0.00 77 1026.4
20260509231544 9 54 1.6 4.8 0.00 0.00 0.00 77 1026.3
20260509230045 9 61 1.6 4.8 0.00 0.00 0.00 77 1026.2
20260509224543 8 62 0.0 6.4 0.00 0.00 0.00 77 1026.3
20260509223044 8 53 1.6 4.8 0.00 0.00 0.00 77 1026.4
20260509221540 9 44 1.6 6.4 0.00 0.00 0.00 76 1026.3
20260509220040 9 69 3.2 6.4 0.00 0.00 0.00 76 1026.2
20260509214539 8 75 1.6 4.8 0.00 0.00 0.00 77 1026.2
20260509213035 8 80 0.0 0.0 0.00 0.00 0.00 77 1026.1
20260509211541 8 80 3.2 8.0 0.00 0.00 0.00 78 1025.8
20260509210032 8 59 0.0 3.2 0.00 0.00 0.00 79 1025.9
20260509204531 8 59 0.0 1.6 0.00 0.00 0.00 78 1025.8
20260509203032 8 59 0.0 0.0 0.00 0.00 0.00 79 1025.6
20260509201530 8 59 0.0 0.0 0.00 0.00 0.00 79 1025.8
20260509200028 7 59 0.0 0.0 0.00 0.00 0.00 79 1025.6
20260509194530 7 59 0.0 1.6 0.00 0.00 0.00 79 1025.5
20260509193030 7 59 0.0 0.0 0.00 0.00 0.00 79 1025.5
20260509191529 7 59 0.0 0.0 0.00 0.00 0.00 80 1025.4
20260509190025 7 59 0.0 0.0 0.00 0.00 0.00 81 1025.5
20260509184531 7 59 0.0 0.0 0.00 0.00 0.00 81 1025.5
20260509183023 7 59 0.0 0.0 0.00 0.00 0.00 84 1025.6
20260509181522 6 59 0.0 1.6 0.00 0.00 0.00 86 1025.6
20260509180020 6 59 0.0 4.8 0.00 0.00 0.00 85 1025.7
20260509174517 7 58 3.2 4.8 0.00 0.00 0.00 81 1025.6
20260509173013 8 58 0.0 0.0 0.00 0.00 0.00 78 1025.5
20260509171511 8 58 0.0 0.0 0.00 0.00 0.00 77 1025.6
20260509170009 8 58 0.0 0.0 0.00 0.00 0.00 78 1025.7
20260509164508 8 58 0.0 0.0 0.00 0.00 0.00 78 1025.9
20260509163008 8 58 0.0 0.0 0.00 0.00 0.00 79 1025.8
20260509161504 8 58 0.0 0.0 0.00 0.00 0.00 79 1025.9
20260509160002 8 58 0.0 0.0 0.00 0.00 0.00 79 1025.9
20260509154502 8 58 0.0 0.0 0.00 0.00 0.00 80 1025.9
20260509153003 8 58 0.0 0.0 0.00 0.00 0.00 79 1026.0
20260509151501 8 58 0.0 0.0 0.00 0.00 0.00 80 1026.2
20260509150100 9 58 0.0 0.0 0.00 0.00 0.00 79 1026.3
20260509144605 9 58 0.0 0.0 0.00 0.00 0.00 77 1026.2
20260509143100 10 58 0.0 0.0 0.00 0.00 0.00 74 1026.4
20260509141559 10 58 0.0 0.0 0.00 0.00 0.00 74 1026.3
20260509140058 10 58 0.0 0.0 0.00 0.00 0.00 72 1026.4
20260509134556 11 58 0.0 0.0 0.00 0.00 0.00 72 1026.3
20260509133103 11 58 0.0 0.0 0.00 0.00 0.00 71 1026.2
20260509131601 11 58 0.0 0.0 0.00 0.00 0.00 71 1026.2
20260509124556 12 58 0.0 0.0 0.00 0.00 0.00 66 1026.0
20260509123055 12 58 0.0 0.0 0.00 0.00 0.00 64 1025.8
20260509121554 13 58 0.0 0.0 0.00 0.00 0.00 60 1025.8
20260509120058 13 58 0.0 3.2 0.00 0.00 0.00 59 1025.8
20260509114554 14 58 0.0 1.6 0.00 0.00 0.00 58 1025.9
20260509113052 15 58 0.0 1.6 0.00 0.00 0.00 56 1025.8
20260509111553 15 58 0.0 0.0 0.00 0.00 0.00 55 1025.9
20260509110051 15 58 0.0 1.6 0.00 0.00 0.00 53 1025.8
20260509104551 15 58 0.0 1.6 0.00 0.00 0.00 53 1025.8
20260509103051 16 58 0.0 1.6 0.00 0.00 0.00 51 1025.7
20260509101551 16 58 0.0 3.2 0.00 0.00 0.00 50 1025.6
20260509100050 17 58 0.0 0.0 0.00 0.00 0.00 49 1025.4
20260509094549 17 58 0.0 3.2 0.00 0.00 0.00 47 1025.2
20260509093049 18 62 1.6 4.8 0.00 0.00 0.00 47 1025.1
20260509091549 18 61 1.6 6.4 0.00 0.00 0.00 44 1025.1
20260509090048 18 59 1.6 3.2 0.00 0.00 0.00 44 1025.1
20260509084547 19 51 1.6 6.4 0.00 0.00 0.00 43 1025.0
20260509083046 20 55 1.6 6.4 0.00 0.00 0.00 42 1025.0
20260509081551 21 58 1.6 8.0 0.00 0.00 0.00 41 1025.1
20260509080046 21 61 1.6 8.0 0.00 0.00 0.00 38 1025.0
20260509074544 22 35 1.6 6.4 0.00 0.00 0.00 39 1025.0
20260509073043 21 360 3.2 8.0 0.00 0.00 0.00 39 1025.1